Kuantan, Malaysia

11:10 AM +08 on October 24, 2019 (GMT +0800)
Kuantan

Weather History for WMKD - August, 2019

Change the Weather History Date:

Tuesday, August 20, 2019

  Actual Average (WUND) Record (WUND)
Temperature  
Mean Temperature 84 °F -  
Max Temperature 92 °F 90 °F - (-1)
Min Temperature 77 °F 72 °F - (-1)
Cooling Degree Days 20    
Growing Degree Days 34 (Base 50)    
Moisture  
Dew Point 77 °F    
Average Humidity 81    
Maximum Humidity 94    
Minimum Humidity 60    
Precipitation  
Precipitation 0.00 in 0.28 in - ()
Sea Level Pressure  
Sea Level Pressure 29.80 in    
Wind  
Wind Speed 2 mph ()    
Max Wind Speed 10 mph    
Max Gust Speed -    
Visibility 4.2 miles    
Events      
Averages and records for this station are not official NWS values.
T = Trace of Precipitation, MM = Missing Value Source: Averaged Metar Reports

Daily Weather History Graph

Daily Weather History Graph

Search for Another Location

Airport or City:

Astronomy

Aug. 20, 2019 Rise Set
Actual Time 7:03 AM +08 7:17 PM +08
Civil Twilight 6:42 AM +08 7:38 PM +08
Nautical Twilight 6:17 AM +08 8:03 PM +08
Astronomical Twilight 5:53 AM +08 8:28 PM +08
Moon 10:44 PM +08 (8/20) 10:24 AM +08 (8/20)
Length of Visible Light 12h 55m
Length of Day
12h 13m
Waning Gibbous, 82% of the Moon is Illuminated
Aug 20
Waning Gibbous
Aug 23
Last Quarter
Aug 30
New
Sep 6
First Quarter
Sep 14
Full

Hourly Weather History & Observations

Time (+08) Temp. Heat Index Dew Point Humidity Pressure Visibility Wind Dir Wind Speed Gust Speed Precip Events Conditions
12:00 AM 80.6 °F 87.1 °F 77.0 °F 89% 29.86 in 6.2 mi Calm Calm - N/A   Mostly Cloudy
1:00 AM 80.6 °F 87.1 °F 77.0 °F 89% 29.83 in 6.2 mi Calm Calm - N/A   Mostly Cloudy
2:00 AM 80 °F - 77 °F 86% 29.83 in 7 mi Calm Calm - -   Haze
2:00 AM 80.6 °F 87.1 °F 77.0 °F 89% 29.83 in 6.2 mi Calm Calm - N/A   Mostly Cloudy
3:00 AM 78.8 °F - 77.0 °F 94% 29.80 in 3.7 mi Calm Calm - N/A   Mostly Cloudy
5:00 AM 79 °F - 76 °F 87% 29.82 in 4 mi Calm Calm - -   Haze
5:00 AM 78.8 °F - 75.2 °F 89% 29.80 in 3.7 mi Calm Calm - N/A   Mostly Cloudy
6:00 AM 78.8 °F - 75.2 °F 89% 29.80 in 4.3 mi Variable 1.2 mph - N/A   Mostly Cloudy
8:00 AM 78 °F - 75 °F 88% 29.85 in 4 mi SSE 1.2 mph - -   Haze
8:00 AM 78.8 °F - 75.2 °F 89% 29.83 in 3.7 mi Variable 1.2 mph - N/A   Mostly Cloudy
11:00 AM 87 °F - 77 °F 66% 29.86 in 2 mi ESE 2.3 mph - -   Haze
11:00 AM 86.0 °F 96.9 °F 77.0 °F 74% 29.86 in 2.5 mi Variable 2.3 mph - N/A   Haze
1:00 PM 91.4 °F 105.1 °F 77.0 °F 63% 29.80 in 2.5 mi Variable 3.5 mph - N/A   Haze
2:00 PM 91 °F - 79 °F 60% 29.79 in 2 mi NE 3.5 mph - -   Haze
2:00 PM 91.4 °F 107.2 °F 78.8 °F 66% 29.77 in 2.5 mi Variable 3.5 mph - N/A   Haze
3:00 PM 87.8 °F 102.5 °F 78.8 °F 75% 29.77 in 3.7 mi East 5.8 mph - N/A   Mostly Cloudy
4:00 PM 89.6 °F 104.7 °F 78.8 °F 70% 29.74 in 4.3 mi East 10.4 mph - N/A   Mostly Cloudy
5:00 PM 86 °F - 79 °F 75% 29.74 in 4 mi ESE 6.9 mph - -   Scattered Clouds
5:00 PM 86.0 °F 99.3 °F 78.8 °F 79% 29.74 in 4.3 mi Variable 6.9 mph - N/A   Mostly Cloudy
6:00 PM 86.0 °F 99.3 °F 78.8 °F 79% 29.74 in 4.3 mi ESE 5.8 mph - N/A   Mostly Cloudy
7:00 PM 84.2 °F 96.1 °F 78.8 °F 84% 29.74 in 4.3 mi ESE 3.5 mph - N/A   Mostly Cloudy
8:00 PM 83 °F - 79 °F 84% 29.77 in 6 mi Calm Calm - -   Haze
8:00 PM 84.2 °F 96.1 °F 78.8 °F 84% 29.77 in 5.6 mi Calm Calm - N/A   Mostly Cloudy
9:00 PM 82.4 °F 90.9 °F 77.0 °F 84% 29.77 in 4.3 mi Calm Calm - N/A   Mostly Cloudy
10:00 PM 82.4 °F 90.9 °F 77.0 °F 84% 29.80 in 4.3 mi Variable 3.5 mph - N/A   Mostly Cloudy
11:00 PM 81 °F - 76 °F 82% 29.82 in 4 mi SSW 2.3 mph - -   Haze
11:00 PM 80.6 °F 87.1 °F 77.0 °F 89% 29.80 in 4.3 mi Variable 2.3 mph - N/A   Mostly Cloudy